Location: B?jaj?g
(11.7167°N, 92.6667°E)
Time: 12:58:37
(UTC+00:00)

Cosmos 2034 Rocket - Pass Details

Date: 18 September 2020
Orbit: 957 x 1002 km, 82.9° (Epoch: 25 October)

Event Time Altitude Azimuth Distance (km) Brightness Sun altitude
Rises 13:29:04 0° 187° (S) 3,705 7.0 -25.5°
Reaches altitude 10° 13:31:35 10° 188° (S) 2,760 6.4 -26.1°
Maximum altitude 13:37:55 77° 273° (W) 1,027 4.1 -27.6°
Drops below altitude 10° 13:44:17 10° 359° (N) 2,765 6.4 -29.2°
Sets 13:46:49 0° 1° (N) 3,712 7.1 -29.8°
